Newton, KS

3:04 PM CDT on June 26, 2017 (GMT -0500)
Newton City County

Weather History for KEWK - April, 2014

Change the Weather History Date:

Monday, April 14, 2014

  Actual Average Record
Temperature  
Mean Temperature 38 °F -  
Max Temperature 46 °F 63 °F 84 °F (2002)
Min Temperature 30 °F 42 °F 28 °F (2008)
Degree Days  
Heating Degree Days 27    
Moisture  
Dew Point 18 °F    
Average Humidity 50    
Maximum Humidity 80    
Minimum Humidity 23    
Precipitation  
Precipitation 0.00 in - - ()
Sea Level Pressure  
Sea Level Pressure 30.14 in    
Wind  
Wind Speed 23 mph (NNW)    
Max Wind Speed 31 mph    
Max Gust Speed 41 mph    
Visibility 9 miles    
Events      
Averages and records for this station are not official NWS values.
T = Trace of Precipitation, MM = Missing Value Source: NWS Daily Summary

Daily Weather History Graph

Daily Weather History Graph

Search for Another Location

Airport or City:

Trip Planner

Search our weather history database for the weather conditions in past years. The results will help you decide how hot, cold, wet, or windy it might be!

Date:

Astronomy

Apr. 14, 2014 Rise Set
Actual Time 6:55 AM CDT 8:04 PM CDT
Civil Twilight 6:27 AM CDT 8:31 PM CDT
Nautical Twilight 5:55 AM CDT 9:03 PM CDT
Astronomical Twilight 5:21 AM CDT 9:37 PM CDT
Moon 7:44 PM CDT (4/14) 6:27 AM CDT (4/14)
Length of Visible Light 14h 03m
Length of Day
13h 09m
Full, 100% of the Moon is Illuminated
Apr 14
Full
Apr 15
Full
Apr 22
Last Quarter
Apr 29
New
May 6
First Quarter

Hourly Weather History & Observations

Time (CDT) Temp. Windchill Dew Point Humidity Pressure Visibility Wind Dir Wind Speed Gust Speed Precip Events Conditions
12:15 AM 33.8 °F 20.8 °F 26.6 °F 75% 29.89 in 10.0 mi North 26.5 mph 38.0 mph N/A   Overcast
12:35 AM 33.8 °F 20.1 °F 26.6 °F 75% 29.90 in 10.0 mi North 29.9 mph 39.1 mph N/A   Overcast
12:55 AM 33.8 °F 20.8 °F 26.6 °F 75% 29.94 in 10.0 mi North 26.5 mph 36.8 mph N/A   Overcast
1:15 AM 33.8 °F 21.6 °F 26.6 °F 75% 29.93 in 10.0 mi North 23.0 mph 35.7 mph N/A   Overcast
1:35 AM 33.8 °F 21.0 °F 24.8 °F 70% 29.97 in 10.0 mi North 25.3 mph 34.5 mph N/A   Overcast
1:55 AM 33.8 °F 21.6 °F 24.8 °F 70% 29.99 in 10.0 mi North 23.0 mph 28.8 mph N/A   Overcast
2:15 AM 33.8 °F 20.3 °F 24.8 °F 70% 29.94 in 10.0 mi North 28.8 mph 34.5 mph N/A   Overcast
2:35 AM 33.8 °F 20.3 °F 24.8 °F 70% 29.93 in 10.0 mi North 28.8 mph 33.4 mph N/A   Overcast
2:55 AM 33.8 °F 22.2 °F 24.8 °F 70% 29.96 in 10.0 mi North 20.7 mph 35.7 mph N/A   Overcast
3:15 AM 35.6 °F 24.0 °F 24.8 °F 65% 30.01 in 10.0 mi NNW 23.0 mph 33.4 mph N/A   Overcast
3:35 AM 33.8 °F 20.1 °F 24.8 °F 70% 30.00 in 7.0 mi North 29.9 mph 35.7 mph N/A   Overcast
3:55 AM 32.0 °F 18.6 °F 24.8 °F 75% 29.98 in 3.0 mi North 25.3 mph 38.0 mph N/A   Overcast
4:15 AM 30.2 °F 16.5 °F 24.8 °F 80% 29.99 in 10.0 mi North 24.2 mph 32.2 mph N/A   Overcast
4:35 AM 32.0 °F 18.9 °F 24.8 °F 75% 30.03 in 10.0 mi NNW 24.2 mph 33.4 mph N/A   Overcast
4:55 AM 30.2 °F 16.2 °F 24.8 °F 80% 30.04 in 2.5 mi North 25.3 mph 39.1 mph N/A   Overcast
5:15 AM 30.2 °F 15.7 °F 24.8 °F 80% 30.03 in 1.8 mi North 27.6 mph 36.8 mph N/A   Overcast
5:35 AM 30.2 °F 15.4 °F 24.8 °F 80% 30.04 in 2.5 mi North 28.8 mph 36.8 mph N/A   Overcast
5:55 AM 30.2 °F 16.5 °F 24.8 °F 80% 30.06 in 2.5 mi North 24.2 mph 33.4 mph N/A   Overcast
6:15 AM 30.2 °F 17.1 °F 24.8 °F 80% 30.06 in 3.0 mi North 21.9 mph 28.8 mph N/A   Overcast
6:35 AM 30.2 °F 16.5 °F 21.2 °F 69% 30.07 in 10.0 mi North 24.2 mph 34.5 mph N/A   Mostly Cloudy
7:15 AM 30.2 °F 15.9 °F 21.2 °F 69% 30.09 in 10.0 mi North 26.5 mph 38.0 mph N/A   Overcast
7:35 AM 30.2 °F 15.4 °F 19.4 °F 64% 30.11 in 10.0 mi North 28.8 mph 41.4 mph N/A   Mostly Cloudy
7:55 AM 30.2 °F 17.1 °F 19.4 °F 64% 30.12 in 10.0 mi North 21.9 mph 35.7 mph N/A   Mostly Cloudy
8:15 AM 30.2 °F 15.4 °F 19.4 °F 64% 30.13 in 10.0 mi North 28.8 mph 38.0 mph N/A   Mostly Cloudy
8:35 AM 30.2 °F 16.2 °F 17.6 °F 60% 30.15 in 10.0 mi NNW 25.3 mph 38.0 mph N/A   Partly Cloudy
8:55 AM 30.2 °F 15.7 °F 19.4 °F 64% 30.15 in 10.0 mi North 27.6 mph 33.4 mph N/A   Clear
9:15 AM 30.2 °F 15.7 °F 17.6 °F 60% 30.16 in 10.0 mi North 27.6 mph 35.7 mph N/A   Partly Cloudy
9:35 AM 30.2 °F 16.5 °F 17.6 °F 60% 30.18 in 10.0 mi NNW 24.2 mph 32.2 mph N/A   Scattered Clouds
9:55 AM 30.2 °F 17.8 °F 19.4 °F 64% 30.19 in 10.0 mi NNW 19.6 mph 29.9 mph N/A   Scattered Clouds
10:15 AM 30.2 °F 16.5 °F 17.6 °F 60% 30.19 in 10.0 mi NNW 24.2 mph 33.4 mph N/A   Partly Cloudy
10:35 AM 32.0 °F 19.2 °F 17.6 °F 55% 30.20 in 10.0 mi North 23.0 mph 32.2 mph N/A   Partly Cloudy
10:55 AM 32.0 °F 19.2 °F 17.6 °F 55% 30.21 in 10.0 mi North 23.0 mph 28.8 mph N/A   Mostly Cloudy
11:15 AM 33.8 °F 21.0 °F 17.6 °F 52% 30.22 in 10.0 mi NNW 25.3 mph 31.1 mph N/A   Mostly Cloudy
11:35 AM 33.8 °F 22.2 °F 19.4 °F 56% 30.23 in 10.0 mi North 20.7 mph 29.9 mph N/A   Partly Cloudy
11:55 AM 35.6 °F 23.7 °F 17.6 °F 48% 30.22 in 10.0 mi North 24.2 mph 33.4 mph N/A   Clear
12:15 PM 37.4 °F 26.1 °F 17.6 °F 45% 30.23 in 10.0 mi North 24.2 mph 32.2 mph N/A   Clear
12:35 PM 37.4 °F 25.9 °F 17.6 °F 45% 30.23 in 10.0 mi NNW 25.3 mph 32.2 mph N/A   Clear
12:55 PM 39.2 °F 29.0 °F 17.6 °F 42% 30.23 in 10.0 mi North 21.9 mph 33.4 mph N/A   Clear
1:15 PM 41.0 °F 30.9 °F 17.6 °F 39% 30.22 in 10.0 mi North 24.2 mph 35.7 mph N/A   Clear
1:35 PM 41.0 °F 30.2 °F 15.8 °F 36% 30.22 in 10.0 mi North 27.6 mph 34.5 mph N/A   Partly Cloudy
1:55 PM 42.8 °F 33.5 °F 15.8 °F 34% 30.22 in 10.0 mi North 23.0 mph 29.9 mph N/A   Clear
2:15 PM 44.6 °F 34.9 °F 15.8 °F 31% 30.21 in 10.0 mi North 28.8 mph 38.0 mph N/A   Clear
2:35 PM 44.6 °F 34.6 °F 15.8 °F 31% 30.22 in 10.0 mi North 31.1 mph 36.8 mph N/A   Clear
2:55 PM 44.6 °F 35.9 °F 14.0 °F 29% 30.22 in 10.0 mi North 23.0 mph 35.7 mph N/A   Clear
3:15 PM 46.4 °F 38.3 °F 14.0 °F 27% 30.21 in 10.0 mi North 23.0 mph 33.4 mph N/A   Clear
3:35 PM 46.4 °F 38.1 °F 12.2 °F 25% 30.21 in 10.0 mi North 24.2 mph 33.4 mph N/A   Clear
3:55 PM 46.4 °F 39.0 °F 15.8 °F 29% 30.21 in 10.0 mi North 19.6 mph 32.2 mph N/A   Clear
4:15 PM 46.4 °F 38.3 °F 14.0 °F 27% 30.20 in 10.0 mi North 23.0 mph 31.1 mph N/A   Clear
4:35 PM 46.4 °F 37.9 °F 14.0 °F 27% 30.20 in 10.0 mi North 25.3 mph 33.4 mph N/A   Clear
4:55 PM 46.4 °F 38.1 °F 12.2 °F 25% 30.20 in 10.0 mi North 24.2 mph 29.9 mph N/A   Clear
5:15 PM 46.4 °F 39.2 °F 12.2 °F 25% 30.20 in 10.0 mi NNW 18.4 mph 28.8 mph N/A   Clear
5:35 PM 46.4 °F 39.5 °F 12.2 °F 25% 30.20 in 10.0 mi North 17.3 mph 27.6 mph N/A   Partly Cloudy
5:55 PM 46.4 °F 40.1 °F 12.2 °F 25% 30.20 in 10.0 mi NNW 15.0 mph 25.3 mph N/A   Clear
6:15 PM 46.4 °F 40.1 °F 10.4 °F 23% 30.20 in 10.0 mi North 15.0 mph 23.0 mph N/A   Clear
6:35 PM 46.4 °F 39.0 °F 12.2 °F 25% 30.20 in 10.0 mi North 19.6 mph 25.3 mph N/A   Partly Cloudy
6:55 PM 44.6 °F 37.8 °F 10.4 °F 25% 30.20 in 10.0 mi NNW 15.0 mph 25.3 mph N/A   Partly Cloudy
7:15 PM 44.6 °F 38.4 °F 12.2 °F 27% 30.19 in 10.0 mi North 12.7 mph - N/A   Clear
7:35 PM 44.6 °F 40.2 °F 10.4 °F 25% 30.19 in 10.0 mi NNW 8.1 mph - N/A   Clear
7:55 PM 42.8 °F 39.3 °F 12.2 °F 29% 30.19 in 10.0 mi NNW 5.8 mph - N/A   Clear
8:15 PM 39.2 °F 35.9 °F 12.2 °F 33% 30.19 in 10.0 mi WNW 4.6 mph - N/A   Clear
8:35 PM 41.0 °F 39.0 °F 12.2 °F 31% 30.19 in 10.0 mi NW 3.5 mph - N/A   Clear
8:55 PM 39.2 °F - 12.2 °F 33% 30.20 in 10.0 mi Calm Calm - N/A   Clear
9:15 PM 39.2 °F 35.9 °F 12.2 °F 33% 30.20 in 10.0 mi West 4.6 mph - N/A   Clear
9:35 PM 37.4 °F 34.9 °F 12.2 °F 36% 30.20 in 10.0 mi West 3.5 mph - N/A   Clear
9:55 PM 37.4 °F 33.8 °F 12.2 °F 36% 30.21 in 10.0 mi West 4.6 mph - N/A   Clear
10:15 PM 37.4 °F 32.8 °F 12.2 °F 36% 30.22 in 10.0 mi West 5.8 mph - N/A   Clear
10:35 PM 37.4 °F 32.8 °F 12.2 °F 36% 30.22 in 10.0 mi West 5.8 mph - N/A   Clear
10:55 PM 35.6 °F 30.7 °F 12.2 °F 38% 30.22 in 10.0 mi West 5.8 mph - N/A   Clear
11:15 PM 35.6 °F 29.9 °F 12.2 °F 38% 30.22 in 10.0 mi WNW 6.9 mph - N/A   Clear
11:35 PM 33.8 °F 27.7 °F 12.2 °F 41% 30.21 in 10.0 mi WNW 6.9 mph - N/A   Clear
11:55 PM 33.8 °F 27.7 °F 12.2 °F 41% 30.21 in 10.0 mi West 6.9 mph - N/A   Clear